CZ-6A DEB

Satellite information

Favourite Embed

Satellite Type and Status

DEBRISIN ORBIT

Key statistics

Satellite CZ-6A DEB at a glance.

Uptime

1129

Days in orbit

Revolutions

≈ 14.4

Per day

Orbit

SSO

Sun Synchronous Orbit

Inclination

98.7

Latest

Satellite identification and parameters

Extended collection of information and parameters for CZ-6A DEB.

Object identification

Identified? True

Debris? True

Object name: CZ-6A DEB

International designator: 2022-151LA

Object number (NORAD): 54550

Object ID (CCSDS): 54550

Country: PEOPLES REPUBLIC OF CHINA (PRC)

Current information (Y/N): Y

RCS size: SMALL

Orbital parameters

Period: 100.217 minutes

Inclination: 98.6854 deg

SMA: 7146.943 km

Apoapsis: 816.401 km

Periapsis: 721.215 km

RAAN: 17.6522 deg

Eccentricy: 0.0066592

Argument of periapsis: 146.3966 deg

Mean anomaly: 214.147 deg

Mean motion: 14.36885788 rev/day

Mean motion (dot): 0.00002192 rev/day2

B* drag term: 0.00073706 1/REarth

Two-line elements (TLE)

Creation date: Dec. 12, 2025, 7:26 a.m.

Reference frame: TEME

Reference center: EARTH

Epoch: Dec. 12, 2025, 12:26 a.m. UTC

TLE line 0: 0 CZ-6A DEB

TLE line 1: 1 54550U 22151LA 25346.01819260 .00002192 00000-0 73706-3 0 9997

TLE line 2: 2 54550 98.6854 17.6522 0066592 146.3966 214.1470 14.36885788161147

Live tracking on map

Real-time ground track for satellite CZ-6A DEB.

In-orbit conjunctions

A list of the most updated potential collisions computed for object CZ-6A DEB.

Target Orbit TCA Probability of collision Miss distance Type
COSMOS 1375 DEB LEO 2025-09-19 17:58:52 0.0001818611 117.0 (m) DEBRIS
CZ-6A DEB SSO 2024-11-12 17:43:12 0.0005465689 675.0 (m) DEBRIS

Associated space launch

Chinese satellite reported for atmospheric/ocean/environmental/spatial parameter research purposes, details TBD.

CZ-6A DEB was lifted into orbit during the mission ‘Long March 6A | Yunhai 3’, on board a Long March 6A space rocket.

The launch took place on Nov. 11, 2022, 10:52 p.m. from Launch Complex 9A.

For more information about the launch, click the button.

Launch to space Long March 6A | Yunhai 3
Long March 6A | Yunhai 3

Agency: N/A

Status: Launch Successful

Launch date: Nov. 11, 2022, 10:52 p.m. UTC

Rocket: Long March 6A

Launch pad: Launch Complex 9A

Location: Taiyuan Satellite Launch Center, People's Republic of China

...

Latest news about this satellite

There are no fresh news available about this satellite. Check back as we update our databases every day.


Newsletter sign-up

Weekly statistics, charts and insights to help you stay on top of the space industry.